Location: Boembeke
(50.8333°N, 3.6333°E)
Time: 00:46:55
(UTC+00:00)

Daily predictions for brighter satellites

Satellite Brightness Start Highest point End
(mag) Time Altitude Azimuth Time Altitude Azimuth Time Altitude Azimuth
Cosmos 923 Rocket 4.2 00:01:40 10° NNW 00:06:57 72° ENE 00:11:01 17° SSE
Cosmos 1937 Rocket 4.4 00:04:13 21° SSE 00:07:02 36° ESE 00:11:49 10° NE
Cosmos 1674 Rocket 4.4 00:05:41 20° SW 00:08:17 42° WNW 00:12:26 10° N
SL-12 R/B(2) 4.4 00:02:26 16° SSW 00:09:16 78° SE 00:19:15 10° NE
Okean 2 Rocket 4.5 00:10:00 10° NNW 00:13:48 28° W 00:16:03 19° SW
Cosmos 1898 Rocket 3.7 00:13:33 25° S 00:16:27 57° ESE 00:21:31 10° NNE
ALOS 2 4.4 00:17:02 15° SW 00:19:03 20° W 00:22:17 10° NW
GEOS 3 Rocket 4.2 00:14:45 10° NE 00:19:38 41° ESE 00:22:15 24° S
Meteor 2-1 Rocket 4.5 00:14:25 10° N 00:20:21 72° ENE 00:24:46 18° SSE
Cosmos 2074 Rocket 4.5 00:21:27 19° SW 00:25:53 53° WNW 00:31:59 10° N
CZ-2D R/B 4.3 00:27:43 10° NE 00:30:58 16° E 00:34:10 10° SE
In-Cosmos 22 Rocket 4.4 00:27:55 22° S 00:31:43 75° E 00:37:34 10° NNE
Cosmos 1606 2.8 00:29:45 10° N 00:33:19 61° ENE 00:35:21 23° SSE
Helios 1A Rocket 3.2 00:32:17 18° SE 00:34:54 56° ENE 00:38:39 10° N
Cosmos 1869 3.3 00:33:40 10° N 00:37:22 69° ENE 00:39:31 23° SSE
SL-16 R/B 3.0 00:35:01 10° NW 00:40:11 36° WSW 00:43:10 22° SSW
USA 234 4.1 00:34:39 10° ENE 00:40:57 53° N 00:47:16 10° WNW
CZ-2C R/B 4.2 00:36:26 10° SE 00:41:11 34° ENE 00:46:02 10° N
Cosmos 2341 Rocket 4.1 00:36:54 20° S 00:41:18 73° E 00:47:31 10° NNE
CENTAUR R/B 2.8 00:35:45 11° SW 00:41:23 71° NW 00:48:50 10° NE
Cosmos 2237 Rocket 4.3 00:42:04 10° WNW 00:43:37 11° W 00:45:11 10° WSW
Cosmos 1461 2.7 00:43:01 27° SSW 00:45:01 70° SE 00:48:54 10° NE
Cosmos 1603 4.1 00:39:50 10° NNW 00:45:35 65° ENE 00:51:16 10° SE
Cosmos 1680 Rocket 3.4 00:42:30 10° NNW 00:47:43 75° WSW 00:51:38 18° SSE
Cosmos 2228 3.4 00:44:04 10° N 00:48:22 61° ENE 00:51:38 16° SSE
CRYOSAT 2 4.3 00:45:59 10° N 00:50:55 89° WNW 00:54:08 22° S
Cosmos 1943 3.1 00:45:32 10° NNW 00:51:11 82° WSW 00:56:23 12° SSE
Cosmos 292 Rocket 4.1 00:48:11 20° SW 00:51:27 60° WNW 00:56:14 10° NNE
Cosmos 2112 Rocket 3.9 00:46:32 10° NNW 00:51:44 80° WSW 00:55:57 16° SSE
Cosmos 2227 Rocket 3.4 00:46:55 10° WSW 00:52:11 38° NW 00:57:29 10° NNE
Cosmos 2082 3.7 00:48:25 20° SW 00:52:27 81° WNW 00:58:06 10° NNE
Aureole 1 Rocket 3.6 00:53:40 19° SW 00:56:16 51° WNW 01:01:06 10° NNE
Resurs 1-4 Rocket 3.6 00:54:08 10° NE 00:58:39 28° E 01:03:08 10° SSE
USA 238 DEB 4.2 00:59:38 18° S 01:03:48 42° ESE 01:10:04 10° NE
USA 238 4.2 00:59:40 18° S 01:03:51 42° ESE 01:10:07 10° NE
BREEZE-M DEB (TANK) 3.2 00:59:44 10° W 01:03:59 24° SW 01:04:16 24° SW
H-2A R/B 3.7 01:04:54 10° N 01:08:22 25° WNW 01:11:28 11° WSW
Cosmos 1818 4.3 01:04:14 10° NW 01:09:12 36° WSW 01:12:28 19° S
BlueWalker 3 2.2 01:05:37 10° WNW 01:09:21 67° N 01:13:05 10° E
Cosmos 1544 Rocket 3.7 01:07:25 10° NNW 01:11:49 61° W 01:14:43 20° S
Cosmos 2218 Rocket 4.0 01:07:06 18° S 01:11:50 88° W 01:18:02 10° N
Cosmos 2297 Rocket 4.4 01:08:22 10° W 01:12:33 21° NW 01:16:46 10° NNE
Cosmos 2366 rocket 4.0 01:08:29 18° SSW 01:13:15 83° W 01:19:31 10° N
Cosmos 372 Rocket 4.4 01:15:43 17° SW 01:19:43 56° WNW 01:24:52 10° NNE
Cosmos 2219 4.2 01:14:58 10° WSW 01:20:15 40° NW 01:25:32 10° NNE
Cosmos 1048 Rocket 4.4 01:15:30 10° NNW 01:20:43 66° ENE 01:25:58 10° SE
Cosmos 494 Rocket 4.0 01:19:03 10° NNW 01:24:19 89° WSW 01:29:35 10° SSE
CZ-4C R/B 4.3 01:19:58 10° WNW 01:24:38 28° NNW 01:30:18 10° NE
Cosmos 921 Rocket 2.9 01:23:05 10° NNW 01:27:20 85° ENE 01:31:31 10° SSE
Cosmos 1975 Rocket 4.3 01:25:49 15° SW 01:28:49 31° WNW 01:32:46 10° N
Cosmos 2227 4.3 01:26:28 17° SSW 01:30:57 84° ESE 01:36:45 10° NNE
IDEFIX/ARIANE 42P 2.8 01:28:03 10° NNE 01:33:18 66° ESE 01:37:48 14° S
Cosmos 1844 4.3 01:32:48 14° S 01:37:33 53° ESE 01:43:11 10° NE
MSX 4.1 01:32:47 10° NNE 01:38:31 64° ESE 01:43:47 12° S
Cosmos 2263 Rocket 3.2 01:33:29 10° WSW 01:38:43 40° NW 01:43:57 10° NNE
NOSS 3-2 (A) 4.1 01:33:48 10° WSW 01:39:08 50° NNW 01:45:36 10° NE
Cosmos 1606 Rocket 3.6 01:42:36 10° N 01:47:04 88° ENE 01:51:29 10° S
NOSS 3-2 (C) 3.5 01:42:25 12° SW 01:47:24 74° NW 01:53:56 10° NE
Cosmos 1937 Rocket 4.4 01:44:19 12° SW 01:48:55 40° WNW 01:53:52 10° NNE
CZ-2C R/B 3.5 01:47:57 10° NNE 01:53:19 61° E 01:58:20 10° S
Genesis I 3.4 01:51:03 10° NW 01:54:39 65° NE 01:58:15 10° SE
Cosmos 1844 Rocket 2.7 01:51:37 14° SSW 01:56:27 79° ESE 02:02:03 10° NNE
Iridium 2 4.2 01:54:29 10° SSE 01:56:38 29° E 01:58:49 10° NNE
GEOS 3 Rocket 4.2 01:52:43 10° NE 01:57:46 53° NW 02:02:43 10° WSW
Cosmos 1536 Rocket 4.0 01:54:56 15° SSW 01:58:29 51° WNW 02:02:47 10° N
SL-16 R/B 2.9 01:52:36 10° SSE 01:58:47 68° ENE 02:04:59 10° NNW
Cosmos 1867 3.6 01:55:11 14° SW 02:00:01 89° SE 02:05:33 10° NE
Cosmos 1726 Rocket 3.6 01:56:29 10° N 02:00:58 89° WSW 02:05:22 10° S
Cosmos 2239 Rocket 4.5 01:55:59 11° S 02:01:58 88° W 02:08:09 10° N
Cosmos 1727 Rocket 4.3 01:57:15 10° NNW 02:03:23 54° W 02:09:31 10° SSW
H-2A R/B 3.4 02:02:25 10° N 02:06:24 71° WNW 02:10:00 12° SSW
Cosmos 1238 Rocket 3.5 02:07:45 10° N 02:10:56 40° ENE 02:13:47 10° SSE
CZ-2D R/B 2.1 02:06:21 10° NNE 02:11:43 87° WNW 02:16:59 10° SSW
USA 81 4.3 02:07:53 10° N 02:13:11 72° E 02:18:26 10° SSE
ALOS 3.3 02:09:24 10° NNE 02:13:50 43° E 02:18:12 10° S
ADEOS II 2.3 02:10:15 10° NNE 02:15:31 73° ESE 02:20:45 10° S
Cosmos 1437 Rocket 3.5 02:16:19 12° SW 02:19:33 37° WNW 02:23:04 10° N
CZ-2C R/B 3.1 02:16:13 10° S 02:21:18 45° W 02:26:32 10° NNW
USA 234 3.9 02:17:05 10° E 02:23:32 63° NNE 02:29:59 10° WNW
Alouette 2 Rocket 3.5 02:19:54 10° S 02:24:00 68° ESE 02:27:34 10° NNE
AQUA 4.0 02:19:51 10° NNE 02:24:35 71° ESE 02:29:17 10° S
Cosmos 1607 4.4 02:18:50 10° NW 02:24:45 40° WSW 02:30:32 10° S
ASTEX 1 3.4 02:22:35 10° S 02:27:26 71° W 02:32:19 10° N
FENGYUN 3A 3.7 02:22:22 10° NNE 02:27:47 88° ESE 02:33:11 10° SSW
Cosmos 1812 2.6 02:26:22 10° NNW 02:29:55 61° W 02:33:26 10° S
ATLAS 5 CENTAUR R/B 2.8 02:27:44 10° S 02:30:22 22° ESE 02:33:12 10° ENE
CENTAUR R/B 4.3 02:27:21 10° WNW 02:33:20 35° NNW 02:40:31 10° NE
Resurs 1-4 Rocket 2.5 02:33:35 10° N 02:38:42 52° WNW 02:43:49 10° SW
NPP 4.4 02:34:46 10° N 02:39:49 42° WNW 02:44:51 10° SW
Timation 2 Rocket 4.2 02:38:02 10° SSW 02:44:37 84° ESE 02:50:56 10° NNE
Cosmos 2058 2.9 02:41:04 10° SSW 02:45:08 82° W 02:49:16 10° N
BlueWalker 3 2.1 02:43:52 10° WNW 02:47:28 46° SSW 02:51:04 10° SE
Cosmos 1933 4.4 02:43:40 10° N 02:47:31 47° ENE 02:51:19 10° SSE
SAR-Lupe-4 3.9 02:44:24 10° NNE 02:47:57 64° ESE 02:51:29 10° S
Cosmos 1892 Rocket 3.9 02:44:10 10° SSW 02:48:29 52° WNW 02:52:51 10° N
Cosmos 2058 Rocket 3.3 02:45:12 10° NNW 02:49:33 54° W 02:53:49 10° S
